[[{"header":{"parameterUnit":"m.s-1","parameterCategory":1,"la1":30.2991,"la2":30.254,"lo1":-89.0895,"lo2":-89.0444,"dy":0.0017,"dx":0.0017,"nx":28,"ny":28,"refTime":"2023-04-28T21:00:00:Z","depth":0,"parameterNumber":2,"parameterNumberName":"U-component_of_WINDS"},"data":[0,0,0,0,0,0,0,0,0,0,0,0,0,0,0,0,0,0,0,0,0,0,0,0,0,0,0,0,0,0,0,0,0,0,0,0,0,0,0,0,0,0,0,0,0,0,0,0,0,0,0,0,0,0,0,0,0,0,5.2103,5.2104,0,5.2152,5.2152,5.2153,5.2108,5.2106,5.2104,5.2102,5.2155,5.2158,5.2161,0,0,0,0,0,0,0,0,0,0,0,0,0,5.1978,5.1981,5.2103,5.2104,5.2105,5.2152,5.2152,5.2153,5.2108,5.2106,5.2103,5.2101,5.2154,5.2158,5.2162,0,0,0,0,0,0,0,0,0,0,0,0,0,5.203,5.1981,5.2103,5.2088,5.2087,5.2152,5.2152,5.2153,5.2108,5.2106,5.2103,5.21,5.2153,5.2158,5.2162,5.2246,0,0,5.2176,5.2178,0,0,0,0,0,0,0,0,5.2027,5.2035,5.2089,5.2089,5.2088,5.2121,5.2127,5.2184,5.2109,5.21,5.2102,5.2099,5.2146,5.2151,5.2166,5.2248,5.2251,5.2177,5.218,5.2182,5.2183,0,0,0,0,0,0,0,5.2024,5.2033,5.2123,5.209,5.2089,5.208,5.2085,5.2138,5.2138,5.2101,5.2098,5.2104,5.2145,5.2162,5.2167,5.2251,5.2177,5.2181,5.2184,5.2186,5.241,5.2413,0,0,0,0,0,0,5.2021,5.203,5.2121,5.2124,5.205,5.2085,5.209,5.2113,5.2137,5.2138,5.2106,5.2102,5.2155,5.2162,5.2169,5.2273,5.2182,5.2186,5.2189,5.2407,5.2411,5.2414,0,0,0,0,0,0,5.2019,5.203,5.2119,5.2076,5.2087,5.209,5.2117,5.2115,5.2132,5.2141,5.2142,5.2123,5.2154,5.2163,5.2228,5.2274,5.2188,5.2192,5.2403,5.2408,5.2412,5.2478,0,0,0,0,0,0,5.2015,5.2029,5.2059,5.2077,5.2089,5.2176,5.2119,5.2118,5.214,5.2134,5.2157,5.2158,5.2152,5.2221,5.2233,5.2279,5.2196,5.2399,5.2405,5.2411,5.2472,5.2484,5.2495,0,0,0,0,0,5.2011,5.2075,5.2061,5.2072,5.2127,5.2178,5.2185,5.2176,5.2144,5.2176,5.2182,5.2158,5.2266,5.2228,5.2241,5.2289,5.2396,5.2404,5.241,5.2466,5.2482,5.2495,0,0,0,0,0,0,5.2062,5.2077,5.2061,5.2133,5.2155,5.217,5.221,5.2192,5.2224,5.2217,5.2205,5.2211,5.2281,5.2291,5.2248,5.2374,5.2326,5.2336,5.2365,5.2379,5.2391,5.2388,5.22,0,0,0,0,0,5.2082,5.2121,5.2132,5.2195,5.2206,5.2207,5.2228,5.222,5.2242,5.2251,5.2262,5.2286,5.2327,5.2353,5.239,5.2472,5.2479,5.2512,5.2524,5.2533,5.2543,5.2592,5.2608,5.2438,5.2437,5.2437,0,0,5.2123,5.2136,5.2161,5.2206,5.2221,5.2265,5.2214,5.2261,5.2294,5.2259,5.2322,5.2332,5.2358,5.2434,5.2467,5.2444,5.2591,5.2542,5.255,5.2554,5.2601,5.2617,5.2632,5.2442,5.2441,5.2441,0,0,5.2221,5.2233,5.2289,5.2306,5.2331,5.2331,5.2345,5.2364,5.2369,5.2432,5.2408,5.2448,5.2515,5.2537,5.2556,5.2667,5.2648,5.2679,5.2741,5.2789,5.2803,5.2815,5.2858,5.2874,5.2688,5.2689,5.2689,0,5.227,5.2332,5.232,5.237,5.2392,5.2361,5.242,5.2437,5.2473,5.2491,5.2463,5.2551,5.2566,5.2649,5.2677,5.2692,5.271,5.2677,5.2802,5.2814,5.2825,5.2866,5.2882,5.2693,5.2692,5.2692,5.2691,0,5.2393,5.2437,5.248,5.2516,5.2542,5.2596,5.2594,5.2623,5.2613,5.2617,5.2684,5.2702,5.2744,5.2763,5.2752,5.2845,5.2831,5.2803,5.2756,5.2845,5.2884,5.29,5.2698,5.2697,5.2696,5.2695,0,0,5.2524,5.2555,5.2571,5.2589,5.2616,5.2651,5.2705,5.2746,5.2773,5.28,5.2848,5.2907,5.2883,5.2906,5.2898,5.294,5.3032,5.2907,5.2908,5.2933,5.3141,5.3164,5.3183,5.3018,5.3021,5.3024,5.314,0,5.2626,5.2719,5.2711,5.2801,5.2844,5.2818,5.2866,5.2889,5.2895,5.2934,5.2941,5.2986,5.2948,5.2962,5.3002,5.3012,5.3074,5.3003,5.3066,5.3069,5.3063,5.3202,5.3226,5.3335,5.3155,5.3157,5.3159,0,5.2757,5.279,5.2884,5.2908,5.2926,5.2969,5.3008,5.3045,5.3072,5.3074,5.3101,5.3088,5.3146,5.3096,5.3178,5.313,5.3156,5.3165,5.3169,5.3177,5.3121,5.3217,5.3369,5.3387,5.3182,5.3181,5.3179,0,5.2849,5.2916,5.2982,5.2998,5.3026,5.3058,5.3072,5.3096,5.3123,5.3158,5.3176,5.3217,5.324,5.3274,5.3273,5.3236,5.3359,5.3307,5.3365,5.3365,5.3394,5.3392,5.3555,5.3405,5.3404,5.3404,5.3404,0,5.2966,5.3025,5.3024,5.3065,5.3133,5.3124,5.3191,5.3202,5.3225,5.3269,5.3248,5.3291,5.3286,5.333,5.333,5.3401,5.3411,5.3416,5.3416,5.342,5.342,5.3439,5.3432,5.3408,5.3408,5.3407,5.3406,0,5.308,5.3081,5.3152,5.3174,5.3181,5.3231,5.3251,5.3291,5.3296,5.3354,5.3367,5.3375,5.3426,5.3429,5.3487,5.3487,5.3575,5.3564,5.3566,5.3565,5.3624,5.362,5.3807,5.3833,5.3663,5.3664,5.3665,0,5.3156,5.3201,5.3229,5.3258,5.3274,5.3319,5.3347,5.3341,5.3371,5.3408,5.3445,5.3494,5.3533,5.3617,5.363,5.3676,5.3669,5.3732,5.3676,5.368,5.3675,5.3674,5.368,5.3743,5.3745,5.3747,5.3748,0,5.3292,5.3291,5.3331,5.3373,5.3407,5.3439,5.3469,5.3494,5.3492,5.3528,5.358,5.3611,5.3672,5.3723,5.3768,5.3785,5.3768,5.3765,5.3782,5.3788,5.3788,5.3793,5.3599,5.3761,5.376,5.3759,5.3758,5.3758,5.3392,5.3433,5.346,5.3507,5.3529,5.3559,5.3599,5.361,5.3653,5.3702,5.3696,5.3756,5.3786,5.3845,5.3866,5.3914,5.3893,5.3916,5.3922,5.3929,5.3937,5.3778,5.3922,5.3922,5.3921,5.3921,5.3921,0,5.353,5.3547,5.359,5.3634,5.3672,5.3651,5.3685,5.3718,5.3771,5.3799,5.3839,5.3902,5.3952,5.3969,5.4019,5.4054,5.4048,5.4068,5.4067,5.4072,5.3951,5.3934,5.4072,5.4072,5.4072,5.4072,5.4072,5.4072,5.3607,5.3677,5.368,5.3762,5.3779,5.3836,5.3858,5.3887,5.391,5.3981,5.4022,5.4033,5.4059,5.4111,5.4157,5.4161,5.4182,5.4206,5.4208,5.4095,5.408,5.4065,5.4049,5.421,5.421,5.4325,5.4326,5.4327]},{"header":{"parameterUnit":"m.s-1","parameterCategory":1,"la1":30.2991,"la2":30.254,"lo1":-89.0895,"lo2":-89.0444,"dy":0.0017,"dx":0.0017,"nx":28,"ny":28,"refTime":"2023-04-28T21:00:00:Z","depth":0,"parameterNumber":3,"parameterNumberName":"V-component_of_WINDS"},"data":[0,0,0,0,0,0,0,0,0,0,0,0,0,0,0,0,0,0,0,0,0,0,0,0,0,0,0,0,0,0,0,0,0,0,0,0,0,0,0,0,0,0,0,0,0,0,0,0,0,0,0,0,0,0,0,0,0,0,0.2666,0.2668,0,0.2867,0.287,0.2872,0.286,0.2857,0.2854,0.2851,0.3066,0.3074,0.3083,0,0,0,0,0,0,0,0,0,0,0,0,0,0.2277,0.2284,0.2665,0.2668,0.2671,0.2867,0.287,0.2872,0.2861,0.2857,0.2853,0.285,0.3063,0.3073,0.3084,0,0,0,0,0,0,0,0,0,0,0,0,0,0.2459,0.2286,0.2665,0.2688,0.2692,0.2866,0.287,0.2873,0.2861,0.2857,0.2852,0.2848,0.306,0.3072,0.3085,0.3252,0,0,0.3124,0.3129,0,0,0,0,0,0,0,0,0.2449,0.2473,0.2682,0.2687,0.2692,0.2834,0.2811,0.3,0.2862,0.2797,0.2851,0.2846,0.2993,0.3011,0.3059,0.3262,0.3271,0.3125,0.3133,0.3138,0.3142,0,0,0,0,0,0,0,0.2436,0.2465,0.2746,0.2685,0.2691,0.2691,0.2711,0.2847,0.2918,0.2803,0.2802,0.2826,0.2995,0.3046,0.3064,0.3274,0.3124,0.3136,0.3144,0.3149,0.3624,0.3628,0,0,0,0,0,0,0.2417,0.2454,0.2739,0.2752,0.2556,0.2701,0.2725,0.2793,0.2916,0.2931,0.2829,0.2825,0.3027,0.3049,0.3071,0.3274,0.3138,0.315,0.3157,0.3619,0.3625,0.363,0,0,0,0,0,0,0.2409,0.2443,0.2731,0.2603,0.2639,0.2712,0.2789,0.2799,0.2851,0.2936,0.295,0.2869,0.3024,0.3053,0.3206,0.3281,0.3156,0.3167,0.3613,0.362,0.3627,0.3681,0,0,0,0,0,0,0.2398,0.244,0.2503,0.2604,0.2646,0.2861,0.2794,0.2806,0.2872,0.2867,0.2977,0.2991,0.3023,0.3187,0.3219,0.3296,0.3177,0.3606,0.3616,0.3625,0.3673,0.3689,0.3703,0,0,0,0,0,0.2384,0.2512,0.2506,0.254,0.2726,0.2865,0.2889,0.2922,0.2878,0.2942,0.2997,0.2987,0.3268,0.3203,0.3238,0.3321,0.3602,0.3613,0.3624,0.3666,0.3686,0.3703,0,0,0,0,0,0,0.2421,0.2526,0.252,0.2684,0.2765,0.2863,0.2945,0.2942,0.304,0.3032,0.307,0.3095,0.3248,0.33,0.3226,0.3488,0.3429,0.3448,0.3449,0.3469,0.3483,0.3468,0.3188,0,0,0,0,0,0.2447,0.2549,0.2636,0.2773,0.2813,0.2872,0.2934,0.2951,0.3038,0.3074,0.314,0.3227,0.3334,0.3404,0.3508,0.368,0.3704,0.3754,0.3769,0.3781,0.3797,0.3891,0.3914,0.3667,0.3667,0.3667,0,0,0.2505,0.2574,0.2637,0.2782,0.2847,0.2953,0.2902,0.3017,0.3097,0.3092,0.3239,0.3291,0.339,0.3553,0.3628,0.3601,0.3871,0.3796,0.3805,0.3814,0.3905,0.3928,0.3949,0.3675,0.3673,0.3672,0,0,0.2662,0.2725,0.2845,0.291,0.3008,0.3046,0.3074,0.3172,0.3205,0.3353,0.3351,0.3448,0.3632,0.3703,0.3763,0.3945,0.394,0.3978,0.4058,0.4149,0.4169,0.4186,0.425,0.4273,0.3994,0.3994,0.3994,0,0.2722,0.2879,0.2908,0.3023,0.3087,0.3084,0.3206,0.3269,0.3397,0.3442,0.3409,0.3639,0.3706,0.3884,0.3928,0.3978,0.4012,0.3966,0.4163,0.4181,0.4198,0.4259,0.4284,0.3998,0.3997,0.3997,0.3997,0,0.2947,0.3057,0.3142,0.3262,0.3335,0.3454,0.3501,0.3573,0.3584,0.3626,0.3776,0.3856,0.3975,0.4018,0.4032,0.4199,0.4178,0.4154,0.4096,0.4224,0.4283,0.4307,0.4004,0.4002,0.4001,0.4,0,0,0.3135,0.3267,0.3298,0.3351,0.3458,0.3544,0.3663,0.3776,0.3836,0.3925,0.4025,0.418,0.4157,0.4225,0.4246,0.4326,0.4464,0.4292,0.4295,0.432,0.4652,0.4669,0.4696,0.4461,0.4466,0.4469,0.4644,0,0.3303,0.351,0.3538,0.3722,0.3823,0.3821,0.3925,0.4002,0.4044,0.4138,0.4186,0.4294,0.4257,0.4297,0.4376,0.4431,0.4531,0.4419,0.4556,0.4561,0.453,0.4727,0.4746,0.4907,0.4667,0.4671,0.4674,0,0.3528,0.3618,0.381,0.3901,0.3945,0.4037,0.4142,0.4232,0.432,0.4345,0.4419,0.443,0.4554,0.449,0.4661,0.4584,0.4642,0.4677,0.4684,0.4698,0.4625,0.4746,0.4959,0.4983,0.471,0.4707,0.4705,0,0.3644,0.3814,0.3951,0.3997,0.4107,0.4171,0.4221,0.4304,0.437,0.4463,0.4506,0.4614,0.4672,0.4756,0.4795,0.4745,0.4965,0.4904,0.4989,0.4989,0.5036,0.5032,0.5261,0.5074,0.5074,0.5073,0.5073,0,0.3828,0.3946,0.4004,0.4088,0.422,0.4252,0.4383,0.4431,0.4505,0.4599,0.4606,0.4695,0.4742,0.4838,0.4871,0.5007,0.5034,0.5059,0.5066,0.5058,0.5055,0.5096,0.5086,0.508,0.5078,0.5077,0.5076,0,0.3981,0.4024,0.4173,0.4264,0.4289,0.4383,0.4461,0.4544,0.4584,0.4704,0.4734,0.4799,0.4912,0.4959,0.5101,0.5122,0.5278,0.5278,0.5248,0.525,0.5332,0.5323,0.5595,0.5632,0.5422,0.5424,0.5425,0,0.4095,0.4185,0.4285,0.4347,0.4397,0.4498,0.4564,0.4599,0.4668,0.4774,0.4844,0.4957,0.5049,0.5231,0.5292,0.5399,0.5401,0.5488,0.5417,0.5405,0.5401,0.5394,0.5403,0.5501,0.5503,0.5505,0.5507,0,0.4294,0.431,0.4403,0.4504,0.4582,0.4664,0.4744,0.4796,0.4844,0.4921,0.5035,0.5107,0.5248,0.536,0.5471,0.5524,0.5524,0.5528,0.5554,0.5546,0.5524,0.5536,0.5282,0.5522,0.5521,0.5519,0.5519,0.5518,0.443,0.4509,0.4591,0.4694,0.4758,0.4832,0.4913,0.4962,0.5057,0.5173,0.5189,0.5312,0.5397,0.5545,0.5602,0.5699,0.5677,0.5714,0.5724,0.5732,0.5737,0.5509,0.572,0.572,0.5719,0.5719,0.5719,0,0.4628,0.4679,0.4774,0.4884,0.4966,0.4956,0.5043,0.5113,0.522,0.5298,0.5387,0.5519,0.5627,0.5695,0.5805,0.587,0.5872,0.5897,0.5893,0.5905,0.5751,0.5717,0.5893,0.5893,0.5893,0.5893,0.5893,0.5893,0.474,0.4873,0.4899,0.5063,0.5115,0.5232,0.5283,0.5352,0.5414,0.5559,0.5648,0.5691,0.5766,0.588,0.5979,0.5997,0.6037,0.6063,0.6079,0.5934,0.5916,0.5898,0.5867,0.6071,0.6072,0.6224,0.6226,0.6227]}]]